Weather History for Wauseon Fulton County Airport, OH

Change the Weather History Date:

Tuesday, December 31, 2013

  Actual Average (KTOL) Record (KTOL)
Temperature  
Mean Temperature 16 °F 26 °F  
Max Temperature 19 °F 33 °F 66 °F (1875)
Min Temperature 14 °F 20 °F -9 °F (1963)
Degree Days  
Heating Degree Days 48 39  
Month to date heating degree days 1092  
Since 1 July heating degree days 2325  
Cooling Degree Days 0 0  
Month to date cooling degree days 0  
Year to date cooling degree days 793  
Moisture  
Dew Point 10 °F    
Average Humidity 74    
Maximum Humidity 93    
Minimum Humidity 58    
Precipitation  
Precipitation 0.00 in 0.08 in 1.54 in (2006)
Month to date precipitation 2.68  
Year to date precipitation 34.24  
Snow  
Snow 0.00 in 0.30 in - ()
Month to date snowfall 7.4  
Since 1 July snowfall 9.5  
Snow Depth -    
Sea Level Pressure  
Sea Level Pressure 30.21 in    
Wind  
Wind Speed 14 mph (West)    
Max Wind Speed 23 mph    
Max Gust Speed 29 mph    
Visibility 8 miles    
Events Snow    
T = Trace of Precipitation, MM = Missing Value Source: NWS Daily Summary

Daily Weather History Graph

Daily Weather History Graph

Search for Another Location

Airport:

Trip Planner

Search our weather history database for the weather conditions in past years. The results will help you decide how hot, cold, wet, or windy it might be!

Date:

Astronomy

Dec. 31, 2013 Rise Set
Actual Time 8:03 AM EST 5:16 PM EST
Civil Twilight 7:31 AM EST 5:47 PM EST
Nautical Twilight 6:56 AM EST 6:22 PM EST
Astronomical Twilight 6:23 AM EST 6:56 PM EST
Moon 6:54 AM EST (12/31) 4:52 PM EST (12/31)
Length of Visible Light 10h 15m
Length of Day
9h 13m
Waning Crescent, 1% of the Moon is Illuminated
Dec 31
Waning Crescent
Jan 1
New
Jan 7
First Quarter
Jan 15
Full
Jan 24
Last Quarter

Hourly Weather History & Observations

Time (EST) Temp. Windchill Dew Point Humidity Pressure Visibility Wind Dir Wind Speed Gust Speed Precip Events Conditions
12:15 AM 19.4 °F 7.2 °F 14.0 °F 80% 30.11 in 2.5 mi WSW 11.5 mph - N/A Snow Light Snow
12:35 AM 19.4 °F 6.6 °F 15.8 °F 86% 30.11 in 3.0 mi West 12.7 mph - N/A Snow Light Snow
12:55 AM 19.4 °F 5.0 °F 14.0 °F 80% 30.10 in 2.0 mi West 16.1 mph - N/A Snow Light Snow
1:15 AM 17.6 °F 2.7 °F 12.2 °F 79% 30.10 in 3.0 mi West 16.1 mph - N/A Snow Light Snow
1:35 AM 17.6 °F 3.7 °F 12.2 °F 79% 30.10 in 3.0 mi West 13.8 mph - N/A Snow Light Snow
1:55 AM 17.6 °F 2.2 °F 14.0 °F 86% 30.09 in 2.5 mi West 17.3 mph - N/A Snow Light Snow
2:15 AM 17.6 °F 3.7 °F 14.0 °F 86% 30.09 in 3.0 mi West 13.8 mph - N/A Snow Light Snow
2:35 AM 17.6 °F 3.2 °F 12.2 °F 79% 30.09 in 4.0 mi West 15.0 mph - N/A Snow Light Snow
2:55 AM 15.8 °F 0.3 °F 10.4 °F 79% 30.10 in 7.0 mi West 16.1 mph 21.9 mph N/A Snow Light Snow
3:15 AM 15.8 °F 0.3 °F 10.4 °F 79% 30.09 in 10.0 mi West 16.1 mph - N/A   Overcast
3:35 AM 15.8 °F 0.9 °F 10.4 °F 79% 30.09 in 3.0 mi West 15.0 mph 23.0 mph N/A Snow Light Snow
3:55 AM 15.8 °F 0.3 °F 8.6 °F 73% 30.09 in 7.0 mi West 16.1 mph 23.0 mph N/A Snow Light Snow
4:15 AM 15.8 °F 0.3 °F 8.6 °F 73% 30.08 in 8.0 mi West 16.1 mph - N/A Snow Light Snow
4:35 AM 15.8 °F 0.9 °F 8.6 °F 73% 30.08 in 10.0 mi West 15.0 mph 20.7 mph N/A   Overcast
4:55 AM 15.8 °F 2.1 °F 8.6 °F 73% 30.08 in 5.0 mi West 12.7 mph 21.9 mph N/A Snow Light Snow
5:15 AM 15.8 °F 0.9 °F 8.6 °F 73% 30.09 in 8.0 mi West 15.0 mph 20.7 mph N/A   Overcast
5:35 AM 15.8 °F -0.2 °F 8.6 °F 73% 30.09 in 10.0 mi West 17.3 mph 24.2 mph N/A   Overcast
5:55 AM 15.8 °F 0.3 °F 8.6 °F 73% 30.10 in 10.0 mi West 16.1 mph 23.0 mph N/A   Overcast
6:15 AM 15.8 °F -0.6 °F 8.6 °F 73% 30.11 in 10.0 mi West 18.4 mph 25.3 mph N/A   Overcast
6:35 AM 14.0 °F -2.5 °F 8.6 °F 79% 30.12 in 10.0 mi West 17.3 mph 24.2 mph N/A   Overcast
6:55 AM 14.0 °F -2.0 °F 8.6 °F 79% 30.12 in 10.0 mi West 16.1 mph 23.0 mph N/A   Overcast
7:15 AM 14.0 °F -0.8 °F 8.6 °F 79% 30.12 in 10.0 mi West 13.8 mph 21.9 mph N/A   Overcast
7:35 AM 15.8 °F 0.3 °F 8.6 °F 73% 30.13 in 10.0 mi West 16.1 mph - N/A   Overcast
7:55 AM 15.8 °F -1.1 °F 8.6 °F 73% 30.14 in 10.0 mi West 19.6 mph - N/A   Overcast
8:15 AM 15.8 °F 0.3 °F 8.6 °F 73% 30.14 in 10.0 mi West 16.1 mph 23.0 mph N/A Snow Light Snow
8:35 AM 15.8 °F -0.6 °F 8.6 °F 73% 30.16 in 10.0 mi West 18.4 mph 25.3 mph N/A Snow Light Snow
8:55 AM 15.8 °F 1.4 °F 8.6 °F 73% 30.17 in 10.0 mi West 13.8 mph - N/A   Overcast
9:15 AM 15.8 °F 1.4 °F 8.6 °F 73% 30.18 in 9.0 mi West 13.8 mph 20.7 mph N/A   Overcast
9:35 AM 15.8 °F -0.2 °F 10.4 °F 79% 30.19 in 10.0 mi WSW 17.3 mph - N/A   Overcast
9:55 AM 15.8 °F 0.3 °F 10.4 °F 79% 30.21 in 10.0 mi WSW 16.1 mph - N/A   Overcast
10:15 AM 17.6 °F 2.2 °F 10.4 °F 73% 30.22 in 10.0 mi WSW 17.3 mph 24.2 mph N/A   Overcast
10:35 AM 17.6 °F 3.7 °F 10.4 °F 73% 30.23 in 10.0 mi WSW 13.8 mph 21.9 mph N/A   Overcast
10:55 AM 17.6 °F 2.7 °F 10.4 °F 73% 30.25 in 10.0 mi WSW 16.1 mph 24.2 mph N/A   Overcast
11:15 AM 17.6 °F 2.2 °F 10.4 °F 73% 30.25 in 10.0 mi WSW 17.3 mph - N/A   Overcast
11:35 AM 17.6 °F 1.7 °F 10.4 °F 73% 30.25 in 10.0 mi WSW 18.4 mph 28.8 mph N/A   Overcast
11:55 AM 17.6 °F 0.1 °F 8.6 °F 68% 30.26 in 10.0 mi WSW 23.0 mph - N/A   Overcast
12:15 PM 17.6 °F 1.3 °F 10.4 °F 73% 30.26 in 10.0 mi WSW 19.6 mph 27.6 mph N/A   Overcast
12:35 PM 19.4 °F 4.1 °F 10.4 °F 68% 30.27 in 10.0 mi WSW 18.4 mph 25.3 mph N/A   Overcast
12:55 PM 17.6 °F 1.3 °F 8.6 °F 68% 30.27 in 10.0 mi WSW 19.6 mph 27.6 mph N/A   Overcast
1:15 PM 17.6 °F 0.9 °F 8.6 °F 68% 30.26 in 10.0 mi WSW 20.7 mph 28.8 mph N/A   Overcast
1:35 PM 17.6 °F 0.1 °F 8.6 °F 68% 30.27 in 10.0 mi WSW 23.0 mph - N/A   Overcast
1:55 PM 17.6 °F 0.9 °F 8.6 °F 68% 30.26 in 10.0 mi WSW 20.7 mph 27.6 mph N/A   Mostly Cloudy
2:15 PM 17.6 °F 3.7 °F 6.8 °F 63% 30.25 in 10.0 mi West 13.8 mph 21.9 mph N/A   Mostly Cloudy
2:35 PM 17.6 °F 1.7 °F 6.8 °F 63% 30.24 in 10.0 mi WSW 18.4 mph - N/A   Mostly Cloudy
2:55 PM 17.6 °F 2.2 °F 6.8 °F 63% 30.25 in 10.0 mi West 17.3 mph - N/A   Scattered Clouds
3:15 PM 17.6 °F 3.7 °F 6.8 °F 63% 30.24 in 10.0 mi West 13.8 mph 20.7 mph N/A   Scattered Clouds
3:35 PM 17.6 °F 3.2 °F 6.8 °F 63% 30.25 in 10.0 mi West 15.0 mph - N/A   Partly Cloudy
3:55 PM 19.4 °F 5.5 °F 6.8 °F 58% 30.26 in 10.0 mi SW 15.0 mph - N/A   Partly Cloudy
4:15 PM 17.6 °F 4.3 °F 6.8 °F 63% 30.26 in 10.0 mi WSW 12.7 mph 18.4 mph N/A   Clear
4:35 PM 17.6 °F 3.2 °F 6.8 °F 63% 30.26 in 10.0 mi WSW 15.0 mph - N/A   Clear
4:55 PM 17.6 °F 3.7 °F 6.8 °F 63% 30.26 in 10.0 mi WSW 13.8 mph - N/A   Clear
5:15 PM 17.6 °F 4.3 °F 6.8 °F 63% 30.27 in 10.0 mi WSW 12.7 mph - N/A   Clear
5:35 PM 17.6 °F 4.3 °F 6.8 °F 63% 30.27 in 10.0 mi WSW 12.7 mph 18.4 mph N/A   Mostly Cloudy
5:55 PM 17.6 °F 3.7 °F 8.6 °F 68% 30.28 in 10.0 mi WSW 13.8 mph - N/A   Overcast
6:15 PM 17.6 °F 5.7 °F 8.6 °F 68% 30.27 in 10.0 mi WSW 10.4 mph - N/A   Overcast
6:35 PM 17.6 °F 5.0 °F 10.4 °F 73% 30.27 in 10.0 mi WSW 11.5 mph - N/A   Overcast
6:55 PM 17.6 °F 6.4 °F 10.4 °F 73% 30.27 in 9.0 mi West 9.2 mph - N/A   Mostly Cloudy
7:15 PM 17.6 °F 5.0 °F 10.4 °F 73% 30.27 in 10.0 mi West 11.5 mph - N/A   Overcast
7:35 PM 17.6 °F 6.4 °F 10.4 °F 73% 30.27 in 10.0 mi West 9.2 mph - N/A   Overcast
7:55 PM 17.6 °F 6.4 °F 10.4 °F 73% 30.28 in 6.0 mi West 9.2 mph - N/A Snow Light Snow
8:15 PM 17.6 °F 5.7 °F 12.2 °F 79% 30.28 in 4.0 mi West 10.4 mph - N/A Snow Light Snow
8:35 PM 17.6 °F 7.3 °F 12.2 °F 79% 30.29 in 3.0 mi WSW 8.1 mph - N/A Snow Light Snow
8:55 PM 17.6 °F 5.7 °F 12.2 °F 79% 30.29 in 2.5 mi WSW 10.4 mph - N/A Snow Light Snow
9:15 PM 17.6 °F 7.3 °F 12.2 °F 79% 30.29 in 3.0 mi WSW 8.1 mph - N/A Snow Light Snow
9:35 PM 17.6 °F 6.4 °F 12.2 °F 79% 30.29 in 4.0 mi WSW 9.2 mph - N/A Snow Light Snow
9:55 PM 17.6 °F 7.3 °F 14.0 °F 86% 30.29 in 2.5 mi WSW 8.1 mph - N/A Snow Light Snow
10:15 PM 17.6 °F 8.2 °F 14.0 °F 86% 30.30 in 2.5 mi West 6.9 mph - N/A Snow Light Snow
10:35 PM 17.6 °F 7.3 °F 14.0 °F 86% 30.30 in 2.0 mi WNW 8.1 mph - N/A Snow Light Snow
10:55 PM 17.6 °F 8.2 °F 14.0 °F 86% 30.31 in 2.0 mi WNW 6.9 mph - N/A Snow Light Snow
11:15 PM 17.6 °F 8.2 °F 14.0 °F 86% 30.31 in 3.0 mi WNW 6.9 mph - N/A Snow Light Snow
11:35 PM 15.8 °F 6.1 °F 14.0 °F 93% 30.32 in 3.0 mi West 6.9 mph - N/A Snow Light Snow
11:55 PM 17.6 °F 8.2 °F 14.0 °F 86% 30.31 in 3.0 mi WNW 6.9 mph - N/A Snow Light Snow